Weather History for KUUU - August, 2013

Change the Weather History Date:

Friday, August 30, 2013

  Actual Average Record
Temperature  
Mean Temperature 65 °F -  
Max Temperature 73 °F 76 °F 95 °F (1973)
Min Temperature 57 °F 61 °F 45 °F (1982)
Growing Degree Days 15 (Base 50)    
Moisture  
Dew Point 61 °F    
Average Humidity 88    
Maximum Humidity 96    
Minimum Humidity 77    
Precipitation  
Precipitation 0.00 in - - ()
Sea Level Pressure  
Sea Level Pressure 29.94 in    
Wind  
Wind Speed 3 mph (SSW)    
Max Wind Speed 9 mph    
Max Gust Speed -    
Visibility 9 miles    
Events      
Averages and records for this station are not official NWS values.
T = Trace of Precipitation, MM = Missing Value Source: NWS Daily Summary

Daily Weather History Graph

Daily Weather History Graph

Search for Another Location

Airport or City:

Trip Planner

Search our weather history database for the weather conditions in past years. The results will help you decide how hot, cold, wet, or windy it might be!

Date:

Astronomy

Aug. 30, 2013 Rise Set
Actual Time 6:09 AM EDT 7:21 PM EDT
Civil Twilight 5:40 AM EDT 7:49 PM EDT
Nautical Twilight 5:06 AM EDT 8:23 PM EDT
Astronomical Twilight 4:30 AM EDT 8:59 PM EDT
Moon 12:43 AM EDT 3:36 PM EDT
Length of Visible Light 14h 08m
Length of Day
13h 11m
Waning Crescent, 29% of the Moon is Illuminated
Aug 30
Waning Crescent
Sep 5
New
Sep 12
First Quarter
Sep 19
Full
Sep 26
Last Quarter

Hourly Weather History & Observations

Time (EDT) Temp. Dew Point Humidity Pressure Visibility Wind Dir Wind Speed Gust Speed Precip Events Conditions
12:53 AM 59.0 °F 57.0 °F 93% 30.02 in 10.0 mi North 4.6 mph - N/A   Clear
1:53 AM 57.9 °F 55.9 °F 93% 30.01 in 10.0 mi Calm Calm - N/A   Clear
2:32 AM 57.2 °F 55.4 °F 94% 30.01 in 10.0 mi Calm Calm - N/A   Mostly Cloudy
2:53 AM 57.9 °F 55.9 °F 93% 30.00 in 10.0 mi North 3.5 mph - N/A   Overcast
3:27 AM 60.8 °F 55.4 °F 82% 30.00 in 10.0 mi North 4.6 mph - N/A   Scattered Clouds
3:53 AM 60.1 °F 57.0 °F 90% 29.99 in 10.0 mi Calm Calm - N/A   Scattered Clouds
4:02 AM 59.0 °F 57.2 °F 94% 29.99 in 10.0 mi Calm Calm - N/A   Mostly Cloudy
4:16 AM 59.0 °F 57.2 °F 94% 29.99 in 10.0 mi Calm Calm - N/A   Overcast
4:53 AM 57.9 °F 55.9 °F 93% 29.98 in 10.0 mi Calm Calm - N/A   Scattered Clouds
5:53 AM 57.0 °F 55.0 °F 93% 29.99 in 10.0 mi Calm Calm - N/A   Clear
6:37 AM 57.2 °F 55.4 °F 94% 30.01 in 10.0 mi Calm Calm - N/A   Mostly Cloudy
6:53 AM 60.1 °F 57.9 °F 93% 30.01 in 10.0 mi Calm Calm - N/A   Overcast
7:53 AM 61.0 °F 57.9 °F 90% 30.00 in 10.0 mi Calm Calm - N/A   Overcast
8:53 AM 64.0 °F 57.9 °F 80% 29.99 in 10.0 mi Calm Calm - N/A   Mostly Cloudy
9:03 AM 64.4 °F 57.2 °F 77% 29.99 in 10.0 mi Variable 4.6 mph - N/A   Overcast
9:53 AM 64.9 °F 59.0 °F 81% 29.98 in 10.0 mi Variable 3.5 mph - N/A   Overcast
10:10 AM 64.4 °F 59.0 °F 83% 29.98 in 10.0 mi SSW 6.9 mph - N/A   Overcast
10:53 AM 66.0 °F 60.1 °F 81% 29.98 in 10.0 mi SSW 5.8 mph - N/A   Overcast
11:53 AM 66.9 °F 62.1 °F 84% 29.96 in 10.0 mi SSW 5.8 mph - N/A   Overcast
12:53 PM 69.1 °F 63.0 °F 81% 29.94 in 10.0 mi Variable 4.6 mph - N/A   Overcast
1:16 PM 71.6 °F 64.4 °F 78% 29.94 in 10.0 mi Variable 3.5 mph - N/A   Overcast
1:53 PM 70.0 °F 64.0 °F 81% 29.92 in 10.0 mi Variable 5.8 mph - N/A   Overcast
2:53 PM 72.0 °F 66.0 °F 81% 29.90 in 10.0 mi SSW 6.9 mph - N/A   Scattered Clouds
3:23 PM 71.6 °F 66.2 °F 83% 29.90 in 10.0 mi SW 9.2 mph - N/A   Mostly Cloudy
3:43 PM 73.4 °F 66.2 °F 78% 29.89 in 10.0 mi SSW 8.1 mph - N/A   Scattered Clouds
3:53 PM 73.0 °F 66.0 °F 79% 29.88 in 10.0 mi SW 8.1 mph - N/A   Partly Cloudy
4:53 PM 72.0 °F 66.0 °F 81% 29.88 in 10.0 mi SSW 6.9 mph - N/A   Partly Cloudy
5:53 PM 71.1 °F 66.0 °F 84% 29.88 in 10.0 mi SSW 6.9 mph - N/A   Clear
6:53 PM 69.1 °F 66.0 °F 90% 29.88 in 9.0 mi SSW 6.9 mph - N/A   Clear
7:53 PM 68.0 °F 66.9 °F 96% 29.87 in 8.0 mi Variable 3.5 mph - N/A   Clear
8:53 PM 68.0 °F 66.0 °F 93% 29.88 in 7.0 mi SSW 4.6 mph - N/A   Clear
9:53 PM 68.0 °F 66.9 °F 96% 29.87 in 6.0 mi SSW 4.6 mph - N/A   Clear
10:53 PM 68.0 °F 66.9 °F 96% 29.87 in 6.0 mi SSW 4.6 mph - N/A   Clear
11:37 PM 68.0 °F 66.2 °F 94% 29.87 in 5.0 mi SSW 4.6 mph - N/A   Scattered Clouds
11:48 PM 68.0 °F 66.2 °F 94% 29.87 in 5.0 mi Variable 4.6 mph - N/A   Mostly Cloudy
11:53 PM 68.0 °F 66.9 °F 96% 29.87 in 5.0 mi SSW 6.9 mph - N/A   Mostly Cloudy